SL-14 DEB, 45346

Orbit data source: Space-Track

SL-14 DEB, 45346 is space debris in LEO originally from a launch on Thu, 15 Aug 1991 UTC launched from the Plesetsk Missile And Space Complex (PKMTR). Debris objects in space refer to the collection of defunct objects orbiting the Earth. Examples of debris include non-operational satellites, rocket bodies, and fragments generated from explosions, collisions, or faulty payload assembly.

Loading next visibility...
Identifier
45346, 1991-056CF
Orbit
LEO
Country
Flag of CISCIS
Related business
Manufacturer
Unknown
Mission
Spacecraft
Bus & Motor
Unknown
Mass
Unknown
Launch date (UTC)
1991-08-15 (35 years ago)
Launch vehicle
Unknown
Launch site
Plesetsk Missile And Space Complex (PKMTR)
Object type
Payload
Rocket body
Debris
Shape & HBR
Unknown shape, 0.1 m
Radar Cross Section
Medium (>0.1 m² and <1 m²)

Expand to show TLE details & history
Last TLE update: 13 hours ago

TLE from 13 hours ago
0 SL-14 DEB
1 45346U 91056CF  26258.42220862  .00002776  00000-0  50851-2 0  9995
2 45346  82.6316  58.7785 0070554 319.9273  39.6669 13.39019839317539
Epoch: 2026-09-15T10:07Z
TLE epoch observation values (Epoch: 2026-09-15T10:07:58.824Z)
Latitude
-0.00002°
Longitude
-87.60498°
Altitude
1,075.235 km
Speed
7.334 km/s
True Right ascension
03h 55m 06s
True Declination
0° 00' 00"
Sunlit
Object was in daylight at epoch
Visualization orbit readout
Latitude
Unknown
Longitude
Unknown
Altitude
Unknown
Speed
Unknown
Apparent Right ascension
Unknown
Apparent Declination
Unknown
Sunlit
N/A
Visualization observer readout
Local Sidereal Time
15:48:23
Azimuth
Unknown
Elevation
Unknown
Doppler factor
Unknown
Orbital elements
Apogee altitude
1,162.976 km
Perigee altitude
1,057.31 km
Semi-major axis
7,488.28 km
Eccentricity
0.00706
Inclination
82.6316°
RAAN
58.7785°
Arg. of periapsis
319.9273°
True anomaly
40.1865°
Mean anomaly
39.6669°
Eccentric anomaly
39.92635°
Mean motion
3.34942 °/min
Orbital period
107.48 mins
BSTAR
0.0050851
Loading maneuver chart data...
Computing Atmospheric mass density...
Loading historical data...
Loading historical data...
Loading historical data...
Loading historical data...
Loading historical data...
Loading historical data...
Loading historical data...

Documentation

Showing up to 5 results
|